| time (UTC) | temp F | wind direction | speed knots | gust knots | rain 1hr in | rain 24hr in | rain mn in | humidity % | barometer mb |
| 20260504184145 | 74 | 228 | 10.4 | 26.9 | 0.00 | 0.00 | 0.00 | 55 | 1003.8 |
| 20260504183642 | 73 | 231 | 3.5 | 25.2 | 0.00 | 0.00 | 0.00 | 58 | 1003.7 |
| 20260504183139 | 73 | 204 | 14.8 | 33.9 | 0.00 | 0.00 | 0.00 | 56 | 1003.8 |
| 20260504182637 | 73 | 217 | 13.0 | 39.1 | 0.00 | 0.00 | 0.00 | 57 | 1003.5 |
| 20260504182134 | 73 | 221 | 12.2 | 26.1 | 0.00 | 0.00 | 0.00 | 56 | 1003.6 |
| 20260504181632 | 74 | 218 | 8.7 | 27.8 | 0.00 | 0.00 | 0.00 | 55 | 1003.7 |
| 20260504181129 | 73 | 205 | 17.4 | 27.8 | 0.00 | 0.00 | 0.00 | 56 | 1003.7 |
| 20260504180628 | 74 | 224 | 15.6 | 31.3 | 0.00 | 0.00 | 0.00 | 55 | 1003.6 |
| 20260504180126 | 74 | 218 | 7.0 | 21.7 | 0.00 | 0.00 | 0.00 | 55 | 1003.6 |
| 20260504175623 | 75 | 221 | 17.4 | 19.1 | 0.00 | 0.00 | 0.00 | 55 | 1003.5 |
| 20260504175120 | 74 | 201 | 6.1 | 22.6 | 0.00 | 0.00 | 0.00 | 55 | 1003.6 |
| 20260504174618 | 74 | 204 | 11.3 | 26.9 | 0.00 | 0.00 | 0.00 | 55 | 1003.5 |
| 20260504174114 | 75 | 189 | 3.5 | 20.9 | 0.00 | 0.00 | 0.00 | 57 | 1003.4 |
| 20260504173611 | 74 | 220 | 3.5 | 26.1 | 0.00 | 0.00 | 0.00 | 56 | 1003.6 |
| 20260504173109 | 74 | 208 | 14.8 | 22.6 | 0.00 | 0.00 | 0.00 | 56 | 1003.6 |
| 20260504172605 | 73 | 246 | 12.2 | 22.6 | 0.00 | 0.00 | 0.00 | 54 | 1003.8 |
| 20260504172102 | 73 | 226 | 11.3 | 19.1 | 0.00 | 0.00 | 0.00 | 55 | 1003.8 |
| 20260504171558 | 73 | 209 | 8.7 | 21.7 | 0.00 | 0.00 | 0.00 | 55 | 1003.6 |
| 20260504171055 | 73 | 221 | 13.0 | 21.7 | 0.00 | 0.00 | 0.00 | 55 | 1003.9 |
| 20260504170551 | 72 | 226 | 19.1 | 20.0 | 0.00 | 0.00 | 0.00 | 58 | 1003.9 |
| 20260504150935 | 65 | 212 | 7.8 | 15.6 | 0.00 | 0.00 | 0.00 | 70 | 1005.1 |
| 20260504150432 | 64 | 210 | 7.8 | 12.2 | 0.00 | 0.00 | 0.00 | 70 | 1004.9 |
| 20260504140858 | 61 | 220 | 13.9 | 13.9 | 0.00 | 0.00 | 0.00 | 76 | 1005.3 |
| 20260504140354 | 61 | 208 | 11.3 | 13.0 | 0.00 | 0.00 | 0.00 | 77 | 1005.5 |
| 20260504130319 | 55 | 158 | 2.6 | 11.3 | 0.00 | 0.00 | 0.00 | 81 | 1005.9 |
| 20260504120237 | 52 | 201 | 3.5 | 10.4 | 0.00 | 0.00 | 0.00 | 80 | 1006.2 |
| 20260504110704 | 47 | 105 | 1.7 | 4.3 | 0.00 | 0.00 | 0.00 | 85 | 1006.0 |
| 20260504110201 | 47 | 144 | 2.6 | 4.3 | 0.00 | 0.00 | 0.00 | 86 | 1005.9 |
| 20260504100125 | 47 | 162 | 3.5 | 9.6 | 0.00 | 0.00 | 0.00 | 84 | 1006.0 |
| 20260504081518 | 48 | 146 | 4.3 | 7.0 | 0.00 | 0.00 | 0.00 | 82 | 1007.0 |
| 20260504081014 | 48 | 128 | 2.6 | 9.6 | 0.00 | 0.00 | 0.00 | 82 | 1007.2 |
| 20260504080510 | 48 | 202 | 6.1 | 9.6 | 0.00 | 0.00 | 0.00 | 82 | 1007.0 |
| 20260504050317 | 50 | 165 | 2.6 | 5.2 | 0.00 | 0.00 | 0.00 | 78 | 1008.6 |
| 20260504045814 | 50 | 125 | 1.7 | 4.3 | 0.00 | 0.00 | 0.00 | 78 | 1008.5 |
| 20260504045314 | 50 | 136 | 0.9 | 4.3 | 0.00 | 0.00 | 0.00 | 79 | 1008.5 |
| 20260504044812 | 50 | 146 | 1.7 | 4.3 | 0.00 | 0.00 | 0.00 | 78 | 1008.5 |
| 20260504044309 | 50 | 119 | 2.6 | 5.2 | 0.00 | 0.00 | 0.00 | 78 | 1008.7 |
| 20260504043806 | 50 | 131 | 2.6 | 4.3 | 0.00 | 0.00 | 0.00 | 79 | 1008.6 |
| 20260504043303 | 51 | 127 | 2.6 | 4.3 | 0.00 | 0.00 | 0.00 | 79 | 1008.9 |
| 20260504042801 | 51 | 180 | 0.9 | 4.3 | 0.00 | 0.00 | 0.00 | 78 | 1008.8 |
| 20260504042257 | 51 | 197 | 0.9 | 5.2 | 0.00 | 0.00 | 0.00 | 77 | 1008.7 |
| 20260504041753 | 51 | 140 | 3.5 | 6.1 | 0.00 | 0.00 | 0.00 | 78 | 1008.9 |
| 20260504041249 | 51 | 108 | 1.7 | 6.1 | 0.00 | 0.00 | 0.00 | 79 | 1008.8 |
| 20260504040745 | 51 | 136 | 2.6 | 9.6 | 0.00 | 0.00 | 0.00 | 78 | 1008.7 |
| 20260504040243 | 50 | 130 | 4.3 | 6.1 | 0.00 | 0.00 | 0.00 | 78 | 1008.9 |
| 20260504035739 | 50 | 123 | 2.6 | 4.3 | 0.00 | 0.03 | 0.03 | 80 | 1009.0 |
| 20260504035236 | 51 | 135 | 3.5 | 7.8 | 0.00 | 0.03 | 0.03 | 78 | 1009.3 |
| 20260504034734 | 50 | 156 | 1.7 | 8.7 | 0.00 | 0.03 | 0.03 | 79 | 1009.2 |
| 20260504034231 | 50 | 137 | 2.6 | 5.2 | 0.00 | 0.03 | 0.03 | 79 | 1009.2 |
| 20260504033729 | 50 | 131 | 2.6 | 7.8 | 0.00 | 0.03 | 0.03 | 78 | 1009.3 |
| 20260504033226 | 50 | 139 | 2.6 | 6.1 | 0.00 | 0.03 | 0.03 | 79 | 1009.4 |
| 20260504032717 | 50 | 177 | 3.5 | 7.8 | 0.00 | 0.03 | 0.03 | 79 | 1009.5 |
| 20260504032214 | 50 | 137 | 1.7 | 6.1 | 0.00 | 0.03 | 0.03 | 79 | 1009.6 |
| 20260504031710 | 50 | 128 | 4.3 | 6.1 | 0.00 | 0.03 | 0.03 | 79 | 1009.3 |
| 20260504031208 | 50 | 135 | 2.6 | 7.8 | 0.00 | 0.03 | 0.03 | 79 | 1009.5 |
| 20260504030658 | 50 | 134 | 4.3 | 6.1 | 0.00 | 0.03 | 0.03 | 79 | 1009.6 |
| 20260504030156 | 50 | 136 | 2.6 | 7.0 | 0.00 | 0.03 | 0.03 | 79 | 1009.7 |
| 20260504025652 | 50 | 127 | 3.5 | 6.1 | 0.00 | 0.03 | 0.03 | 79 | 1009.8 |
| 20260504025149 | 50 | 145 | 2.6 | 6.1 | 0.00 | 0.03 | 0.03 | 80 | 1009.7 |
| 20260504024646 | 50 | 148 | 2.6 | 6.1 | 0.00 | 0.03 | 0.03 | 79 | 1010.1 |
| 20260504024142 | 50 | 141 | 2.6 | 6.1 | 0.00 | 0.03 | 0.03 | 79 | 1009.8 |
| 20260504023639 | 50 | 137 | 2.6 | 6.1 | 0.00 | 0.03 | 0.03 | 80 | 1009.8 |
| 20260504023135 | 50 | 120 | 2.6 | 6.1 | 0.00 | 0.03 | 0.03 | 80 | 1009.8 |
| 20260504022632 | 50 | 132 | 1.7 | 6.1 | 0.00 | 0.03 | 0.03 | 80 | 1010.0 |
| 20260504022127 | 50 | 136 | 2.6 | 6.1 | 0.00 | 0.03 | 0.03 | 81 | 1009.8 |
| 20260504021626 | 50 | 139 | 2.6 | 6.1 | 0.00 | 0.03 | 0.03 | 81 | 1009.8 |
| 20260504021122 | 49 | 145 | 3.5 | 6.1 | 0.00 | 0.03 | 0.03 | 81 | 1010.1 |
| 20260504020619 | 49 | 132 | 3.5 | 7.8 | 0.00 | 0.03 | 0.03 | 81 | 1009.8 |
| 20260504020115 | 49 | 164 | 3.5 | 7.0 | 0.00 | 0.03 | 0.03 | 82 | 1009.7 |
| 20260504015612 | 49 | 145 | 3.5 | 6.1 | 0.00 | 0.03 | 0.03 | 84 | 1010.0 |
| 20260504015108 | 49 | 130 | 3.5 | 6.1 | 0.00 | 0.03 | 0.03 | 84 | 1010.1 |
| 20260504014604 | 49 | 131 | 4.3 | 7.0 | 0.00 | 0.03 | 0.03 | 83 | 1010.1 |
| 20260504014102 | 48 | 132 | 2.6 | 7.8 | 0.00 | 0.03 | 0.03 | 85 | 1010.0 |
| 20260504013559 | 48 | 142 | 2.6 | 5.2 | 0.00 | 0.03 | 0.03 | 87 | 1010.2 |
| 20260504013055 | 48 | 132 | 1.7 | 4.3 | 0.00 | 0.03 | 0.03 | 89 | 1009.8 |
| 20260504012553 | 48 | 116 | 0.0 | 4.3 | 0.00 | 0.03 | 0.03 | 90 | 1010.1 |
| 20260504012051 | 48 | 139 | 2.6 | 6.1 | 0.00 | 0.03 | 0.03 | 89 | 1010.1 |
| 20260504011547 | 48 | 148 | 2.6 | 5.2 | 0.00 | 0.03 | 0.03 | 90 | 1010.0 |
| 20260504011043 | 48 | 148 | 1.7 | 6.1 | 0.00 | 0.03 | 0.03 | 89 | 1010.0 |
| 20260504010539 | 48 | 133 | 4.3 | 6.1 | 0.00 | 0.03 | 0.03 | 89 | 1010.0 |
| 20260504010036 | 48 | 130 | 2.6 | 5.2 | 0.00 | 0.03 | 0.03 | 90 | 1010.1 |
| 20260504005532 | 48 | 140 | 1.7 | 5.2 | 0.00 | 0.03 | 0.03 | 91 | 1010.1 |
| 20260504005030 | 48 | 154 | 2.6 | 4.3 | 0.00 | 0.03 | 0.03 | 91 | 1010.2 |
| 20260504004528 | 48 | 129 | 1.7 | 7.0 | 0.02 | 0.03 | 0.03 | 92 | 1010.1 |
| 20260504004024 | 48 | 136 | 2.6 | 4.3 | 0.02 | 0.03 | 0.03 | 92 | 1010.3 |
| 20260504003520 | 48 | 148 | 3.5 | 6.1 | 0.00 | 0.03 | 0.03 | 91 | 1010.1 |
| 20260504003017 | 48 | 143 | 2.6 | 6.1 | 0.00 | 0.03 | 0.03 | 91 | 1010.2 |
| 20260504002515 | 48 | 123 | 1.7 | 7.0 | 0.00 | 0.03 | 0.03 | 90 | 1010.2 |
| 20260504002012 | 48 | 146 | 6.1 | 6.1 | 0.00 | 0.03 | 0.03 | 89 | 1010.3 |
| 20260504001509 | 48 | 134 | 1.7 | 4.3 | 0.00 | 0.03 | 0.03 | 90 | 1010.4 |
| 20260504001005 | 48 | 129 | 1.7 | 4.3 | 0.00 | 0.03 | 0.03 | 90 | 1010.2 |
| 20260504000503 | 48 | 138 | 1.7 | 6.1 | 0.00 | 0.03 | 0.03 | 91 | 1010.2 |
| 20260504000000 | 48 | 127 | 0.9 | 3.5 | 0.00 | 0.03 | 0.03 | 92 | 1010.3 |
| 20260503235458 | 48 | 82 | 1.7 | 3.5 | 0.00 | 0.03 | 0.03 | 91 | 1010.3 |
| 20260503234955 | 48 | 142 | 2.6 | 7.0 | 0.00 | 0.03 | 0.03 | 91 | 1010.4 |
| 20260503234452 | 48 | 136 | 2.6 | 5.2 | 0.00 | 0.03 | 0.03 | 90 | 1010.1 |
| 20260503233950 | 48 | 136 | 3.5 | 5.2 | 0.00 | 0.03 | 0.03 | 92 | 1010.1 |
| 20260503233446 | 48 | 116 | 1.7 | 3.5 | 0.00 | 0.03 | 0.03 | 93 | 1010.4 |
| 20260503232943 | 48 | 98 | 1.7 | 4.3 | 0.00 | 0.03 | 0.03 | 92 | 1010.1 |
| 20260503232440 | 48 | 138 | 2.6 | 6.1 | 0.00 | 0.03 | 0.03 | 92 | 1010.1 |
| 20260503231937 | 48 | 134 | 2.6 | 6.1 | 0.00 | 0.03 | 0.03 | 91 | 1010.1 |
| 20260503231435 | 48 | 119 | 2.6 | 4.3 | 0.00 | 0.03 | 0.03 | 92 | 1010.4 |
| 20260503230931 | 48 | 155 | 0.0 | 4.3 | 0.00 | 0.03 | 0.03 | 92 | 1010.5 |
| 20260503230428 | 48 | 132 | 1.7 | 5.2 | 0.00 | 0.03 | 0.03 | 92 | 1010.3 |
| 20260503225926 | 48 | 122 | 2.6 | 3.5 | 0.00 | 0.03 | 0.03 | 91 | 1010.6 |
| 20260503225422 | 48 | 128 | 1.7 | 3.5 | 0.00 | 0.03 | 0.03 | 92 | 1010.6 |
| 20260503224917 | 48 | 77 | 0.9 | 3.5 | 0.00 | 0.03 | 0.03 | 92 | 1010.8 |
| 20260503224415 | 48 | 105 | 0.9 | 4.3 | 0.00 | 0.03 | 0.03 | 92 | 1010.8 |
| 20260503223913 | 48 | 132 | 2.6 | 6.1 | 0.00 | 0.03 | 0.03 | 91 | 1011.1 |
| 20260503223410 | 48 | 78 | 0.9 | 3.5 | 0.00 | 0.03 | 0.03 | 93 | 1011.3 |
| 20260503222905 | 48 | 126 | 3.5 | 4.3 | 0.00 | 0.03 | 0.03 | 93 | 1011.2 |
| 20260503222404 | 48 | 122 | 1.7 | 8.7 | 0.00 | 0.03 | 0.03 | 93 | 1011.3 |
| 20260503221901 | 47 | 143 | 3.5 | 8.7 | 0.00 | 0.03 | 0.03 | 93 | 1011.3 |
| 20260503221400 | 47 | 124 | 3.5 | 6.1 | 0.00 | 0.03 | 0.03 | 95 | 1011.4 |
| 20260503220856 | 47 | 133 | 1.7 | 4.3 | 0.00 | 0.03 | 0.03 | 96 | 1011.5 |
| 20260503220347 | 46 | 141 | 2.6 | 4.3 | 0.05 | 0.03 | 0.03 | 96 | 1011.4 |
| 20260503215844 | 46 | 143 | 4.3 | 6.1 | 0.09 | 0.02 | 0.02 | 95 | 1012.1 |
| 20260503215341 | 47 | 142 | 4.3 | 7.0 | 0.09 | 0.02 | 0.02 | 96 | 1012.5 |
| 20260503214838 | 47 | 198 | 5.2 | 9.6 | 0.05 | 0.01 | 0.01 | 92 | 1012.4 |
| 20260503214330 | 47 | 200 | 4.3 | 11.3 | 0.00 | 0.00 | 0.00 | 90 | 1012.5 |
| 20260503213827 | 48 | 212 | 5.2 | 17.4 | 0.00 | 0.00 | 0.00 | 87 | 1012.7 |
| 20260503213325 | 48 | 205 | 6.1 | 18.2 | 0.00 | 0.00 | 0.00 | 85 | 1012.9 |
| 20260503212821 | 49 | 226 | 13.9 | 20.0 | 0.00 | 0.00 | 0.00 | 79 | 1012.7 |
| 20260503212320 | 50 | 200 | 20.9 | 23.5 | 0.00 | 0.00 | 0.00 | 75 | 1012.4 |
| 20260503211817 | 50 | 218 | 6.1 | 25.2 | 0.00 | 0.00 | 0.00 | 71 | 1012.4 |
| 20260503211314 | 51 | 234 | 12.2 | 20.9 | 0.00 | 0.00 | 0.00 | 69 | 1012.4 |
| 20260503210813 | 51 | 274 | 13.0 | 33.9 | 0.00 | 0.00 | 0.00 | 68 | 1012.2 |
| 20260503210311 | 52 | 215 | 14.8 | 28.7 | 0.00 | 0.00 | 0.00 | 66 | 1012.1 |
| 20260503205806 | 52 | 252 | 20.0 | 31.3 | 0.00 | 0.00 | 0.00 | 65 | 1012.2 |
| 20260503205304 | 55 | 206 | 7.8 | 32.2 | 0.00 | 0.00 | 0.00 | 59 | 1012.1 |
| 20260503204800 | 58 | 187 | 4.3 | 25.2 | 0.00 | 0.00 | 0.00 | 49 | 1012.0 |
| 20260503204257 | 58 | 219 | 7.8 | 25.2 | 0.00 | 0.00 | 0.00 | 43 | 1011.9 |
| 20260503203754 | 59 | 222 | 14.8 | 20.0 | 0.00 | 0.00 | 0.00 | 45 | 1011.7 |
| 20260503203252 | 58 | 213 | 10.4 | 23.5 | 0.00 | 0.00 | 0.00 | 44 | 1011.8 |
| 20260503202748 | 58 | 210 | 9.6 | 24.3 | 0.00 | 0.00 | 0.00 | 44 | 1012.0 |
| 20260503202246 | 59 | 210 | 14.8 | 21.7 | 0.00 | 0.00 | 0.00 | 43 | 1012.0 |
| 20260503201744 | 59 | 145 | 1.7 | 20.0 | 0.00 | 0.00 | 0.00 | 46 | 1012.0 |
| 20260503201241 | 59 | 215 | 6.1 | 20.0 | 0.00 | 0.00 | 0.00 | 44 | 1012.3 |
| 20260503200737 | 59 | 229 | 6.1 | 14.8 | 0.00 | 0.00 | 0.00 | 45 | 1012.1 |
| 20260503200234 | 59 | 207 | 10.4 | 19.1 | 0.00 | 0.00 | 0.00 | 45 | 1012.4 |
| 20260503195731 | 59 | 222 | 13.9 | 27.8 | 0.00 | 0.00 | 0.00 | 43 | 1012.2 |
| 20260503195228 | 59 | 225 | 4.3 | 28.7 | 0.00 | 0.00 | 0.00 | 43 | 1012.2 |
| 20260503194726 | 60 | 217 | 14.8 | 28.7 | 0.00 | 0.00 | 0.00 | 42 | 1012.4 |
| 20260503194221 | 60 | 197 | 7.0 | 13.0 | 0.00 | 0.00 | 0.00 | 42 | 1012.5 |
| 20260503193717 | 61 | 222 | 6.1 | 23.5 | 0.00 | 0.00 | 0.00 | 40 | 1012.5 |
| 20260503193214 | 60 | 214 | 9.6 | 18.2 | 0.00 | 0.00 | 0.00 | 42 | 1012.3 |
| 20260503192709 | 60 | 216 | 13.0 | 21.7 | 0.00 | 0.00 | 0.00 | 43 | 1012.5 |
| 20260503192205 | 60 | 219 | 7.8 | 24.3 | 0.00 | 0.00 | 0.00 | 42 | 1012.7 |
| 20260503191702 | 61 | 210 | 10.4 | 17.4 | 0.00 | 0.00 | 0.00 | 41 | 1012.4 |
| 20260503191159 | 61 | 216 | 13.9 | 23.5 | 0.00 | 0.00 | 0.00 | 41 | 1012.5 |
| 20260503190655 | 60 | 219 | 6.1 | 22.6 | 0.00 | 0.00 | 0.00 | 42 | 1012.8 |
| 20260503190152 | 60 | 213 | 9.6 | 21.7 | 0.00 | 0.00 | 0.00 | 43 | 1012.6 |
| 20260503185643 | 61 | 213 | 13.9 | 27.8 | 0.00 | 0.00 | 0.00 | 40 | 1012.8 |
| 20260503185138 | 61 | 208 | 9.6 | 19.1 | 0.00 | 0.00 | 0.00 | 43 | 1013.0 |
| 20260503184634 | 61 | 227 | 9.6 | 24.3 | 0.00 | 0.00 | 0.00 | 39 | 1012.9 |